Flag for U.S.A. Weather past 2 weeks in Miami, Florida, U.S.A.

Now
84 °F

Broken clouds.


Feels Like: 87 °F
Forecast: 76 / 85 °F
Wind: 12 mph from East

Location: Miami International Airport

Current Time: May 29, 2015 at 6:23:28 PM

Latest Report: May 29, 2015 at 5:53 PM


Visibility: 10 mi

Pressure: 30.03 "Hg

Humidity: 57%

Dew point: 67 °F

Location of MiamiLocation

Historic Weather in Miami — Graph

°F

Miami temperature yesterday

Maximum temperature yesterday: 86 °F (at 2:53 PM)
Minimum temperature yesterday: 77 °F (at 3:53 AM)
Average temperature yesterday: 81 °F

Past Weeks' High & Low Weather Summary

 TemperatureHumidityPressure
High92 °F (May 21, 1:53 PM)88% (May 20, 6:53 AM)30.20 "Hg (May 20, 6:53 AM)
Low74 °F (May 20, 6:53 AM)39% (May 20, 2:53 PM)29.94 "Hg (May 21, 4:53 PM)
Average82 °F64%30.10 "Hg
* Reported May 14 4:53 PM — May 29 4:53 PM, Miami, Weather by CustomWeather, © 2015

Note: Actual official high and low records may vary slightly from our data, if they occured in-between our weather recording intervals... More about our weather records

Advertising

Miami weather history for previous 24 hours

 ConditionsComfort  
Time TempWeatherWind HumidityBarometerVisibility
4:53 PM
Fri, May 29
85 °FPartly sunny.13 mph50%30.03 "Hg10 mi
3:53 PM87 °FScattered clouds.13 mph45%30.03 "Hg10 mi
2:53 PM86 °FScattered clouds.10 mph49%30.05 "Hg10 mi
1:53 PM87 °FPartly sunny.10 mph45%30.06 "Hg10 mi
12:53 PM85 °FBroken clouds.10 mph53%30.06 "Hg10 mi
11:53 AM82 °FPartly sunny.12 mph60%30.07 "Hg10 mi
10:53 AM82 °FPartly sunny.12 mph58%30.07 "Hg10 mi
9:53 AM83 °FBroken clouds.8 mph59%30.06 "Hg10 mi
8:53 AM81 °FPartly sunny.13 mph60%30.05 "Hg10 mi
7:53 AM79 °FPassing clouds.5 mph60%30.04 "Hg10 mi
6:53 AM75 °FPassing clouds.5 mph66%30.04 "Hg10 mi
5:53 AM76 °FPassing clouds.No wind62%30.03 "Hg10 mi
4:53 AM76 °FPassing clouds.6 mph62%30.03 "Hg10 mi
3:53 AM77 °FPassing clouds.6 mph60%30.03 "Hg10 mi
2:53 AM77 °FPassing clouds.9 mph62%30.04 "Hg10 mi
1:53 AM78 °FPassing clouds.9 mph60%30.05 "Hg10 mi
12:53 AM78 °FPassing clouds.16 mph60%30.06 "Hg10 mi
11:53 PM
Thu, May 28
79 °FPartly cloudy.12 mph56%30.08 "Hg10 mi
10:53 PM79 °FPartly cloudy.7 mph58%30.08 "Hg10 mi
9:53 PM79 °FPassing clouds.7 mph60%30.07 "Hg10 mi
8:53 PM80 °FBroken clouds.12 mph58%30.06 "Hg10 mi
7:53 PM80 °FScattered clouds.13 mph54%30.05 "Hg10 mi
6:53 PM81 °FBroken clouds.16 mph56%30.05 "Hg10 mi
Weather by CustomWeather, © 2015

See weather overviewHow to use our weather pages